This is the latest recevied weather packets stored in our database for station/object WA9NNN-10. If no packets are shown the sender has not sent any weather packets the latest 1 day(s).
| Time | Temp. | Humidity | Pressure | Rain* | Wind** | Luminosity | Snow |
|---|---|---|---|---|---|---|---|
| 1777974996 | 12.78° C | 55% | 1005.8 hPa | 0 mm | 1.34 m/s, 360° | - | - |
| 1777974697 | 12.78° C | 54% | 1005.8 hPa | 0 mm | 1.79 m/s, 345° | - | - |
| 1777974397 | 12.78° C | 53% | 1005.9 hPa | 0 mm | 0.89 m/s, 335° | - | - |
| 1777974097 | 12.78° C | 53% | 1005.6 hPa | 0 mm | 1.34 m/s, 359° | - | - |
| 1777973797 | 13.33° C | 53% | 1005.8 hPa | 0 mm | 1.34 m/s, 1° | - | - |
| 1777973497 | 13.33° C | 54% | 1005.8 hPa | 0 mm | 1.79 m/s, 301° | - | - |
| 1777973197 | 13.33° C | 52% | 1005.4 hPa | 0 mm | 1.79 m/s, 328° | - | - |
| 1777972898 | 13.33° C | 51% | 1005.5 hPa | 0 mm | 0.45 m/s, 311° | - | - |
| 1777972597 | 13.89° C | 49% | 1005.4 hPa | 0 mm | 0.89 m/s, 338° | - | - |
| 1777972297 | 13.89° C | 49% | 1005.6 hPa | 0 mm | 2.24 m/s, 359° | - | - |
| 1777971997 | 13.89° C | 50% | 1005.3 hPa | 0 mm | 1.34 m/s, 326° | - | - |
| 1777971697 | 13.89° C | 49% | 1005.1 hPa | 0 mm | 2.24 m/s, 328° | - | - |
| 1777971397 | 14.44° C | 48% | 1004.8 hPa | 0 mm | 3.58 m/s, 312° | - | - |
| 1777971097 | 14.44° C | 46% | 1004.8 hPa | 0 mm | 1.79 m/s, 316° | - | - |
| 1777970796 | 14.44° C | 46% | 1004.7 hPa | 0 mm | 1.34 m/s, 294° | - | - |
| 1777970497 | 15° C | 45% | 1004.2 hPa | 0 mm | 1.34 m/s, 324° | - | - |
| 1777970197 | 15° C | 45% | 1004.1 hPa | 0 mm | 2.68 m/s, 330° | - | - |
| 1777969897 | 15° C | 45% | 1003.6 hPa | 0 mm | 1.79 m/s, 328° | - | - |
| 1777969596 | 15° C | 45% | 1003.7 hPa | 0 mm | 0.89 m/s, 304° | - | - |
| 1777969297 | 15° C | 45% | 1003.7 hPa | 0 mm | 0.45 m/s, 307° | - | - |
| 1777968996 | 15.56° C | 44% | 1003.6 hPa | 0 mm | 1.34 m/s, 307° | - | - |
| 1777968697 | 15.56° C | 44% | 1003.5 hPa | 0 mm | 1.34 m/s, 321° | - | - |
| 1777968397 | 15.56° C | 43% | 1003.3 hPa | 0 mm | 0.45 m/s, 290° | - | - |
| 1777968097 | 15.56° C | 43% | 1003.1 hPa | 0 mm | 1.34 m/s, 314° | - | - |
| 1777967797 | 15.56° C | 43% | 1003 hPa | 0 mm | 1.34 m/s, 321° | - | - |
* Rain latest hour (hover to see other rain measurements)
** Current wind speed in m/s (hover to see current wind gust speed)